Time,TemperatureF,DewpointF,PressureIn,WindDirection,WindDirectionDegrees,WindSpeedMPH,WindSpeedGustMPH,Humidity,HourlyPrecipIn,Conditions,Clouds,dailyrainin,SoftwareType,DateUTC
2013-09-10 00:00:00,64.2,57.6,30.19,South,183,0.0,5.0,79,0.00,,,0.00,meteohub,2013-09-10 04:00:00,
2013-09-10 00:01:00,64.2,57.6,30.19,East,99,1.0,5.0,79,0.00,,,0.00,meteohub,2013-09-10 04:01:00,
2013-09-10 00:02:00,64.2,57.6,30.19,East,99,0.0,5.0,79,0.00,,,0.00,meteohub,2013-09-10 04:02:00,
2013-09-10 00:07:00,64.2,57.6,30.19,SW,231,0.0,3.0,79,0.00,,,0.00,meteohub,2013-09-10 04:07:00,
2013-09-10 00:12:00,64.2,57.6,30.19,SSE,158,0.0,3.0,79,0.00,,,0.00,meteohub,2013-09-10 04:12:00,
2013-09-10 00:17:00,64.4,57.7,30.19,SE,144,0.0,3.0,79,0.00,,,0.00,meteohub,2013-09-10 04:17:00,
2013-09-10 00:22:00,64.2,57.6,30.20,SE,145,0.0,3.0,79,0.00,,,0.00,meteohub,2013-09-10 04:22:00,
2013-09-10 00:27:00,64.0,57.7,30.19,SE,145,1.0,2.0,80,0.00,,,0.00,meteohub,2013-09-10 04:27:00,
2013-09-10 00:32:00,63.9,57.9,30.19,NE,37,3.0,3.0,81,0.00,,,0.00,meteohub,2013-09-10 04:32:00,
2013-09-10 00:37:00,63.9,57.9,30.19,NW,305,0.0,3.0,81,0.00,,,0.00,meteohub,2013-09-10 04:37:00,
2013-09-10 00:42:00,63.7,57.7,30.20,NW,305,0.0,3.0,81,0.00,,,0.00,meteohub,2013-09-10 04:42:00,
2013-09-10 00:47:00,63.7,57.7,30.19,NW,305,2.0,3.0,81,0.00,,,0.00,meteohub,2013-09-10 04:47:00,
2013-09-10 00:52:00,64.0,58.1,30.19,SE,129,2.0,4.0,81,0.00,,,0.00,meteohub,2013-09-10 04:52:00,
2013-09-10 00:57:00,64.4,58.1,30.19,South,177,1.0,4.0,80,0.00,,,0.00,meteohub,2013-09-10 04:57:00,
2013-09-10 01:02:00,64.6,58.3,30.19,West,262,1.0,4.0,80,0.00,,,0.00,meteohub,2013-09-10 05:02:00,
2013-09-10 01:07:00,64.6,58.3,30.20,WSW,251,0.0,4.0,80,0.00,,,0.00,meteohub,2013-09-10 05:07:00,
2013-09-10 01:12:00,64.6,58.3,30.20,West,266,0.0,3.0,80,0.00,,,0.00,meteohub,2013-09-10 05:12:00,
2013-09-10 01:17:00,64.4,58.5,30.20,West,280,0.0,3.0,81,0.00,,,0.00,meteohub,2013-09-10 05:17:00,
2013-09-10 01:22:00,64.2,58.3,30.19,WNW,289,1.0,2.0,81,0.00,,,0.00,meteohub,2013-09-10 05:22:00,
2013-09-10 01:27:00,64.2,58.6,30.19,SSW,203,1.0,2.0,82,0.00,,,0.00,meteohub,2013-09-10 05:27:00,
2013-09-10 01:32:00,64.2,58.6,30.19,SSE,147,0.0,3.0,82,0.00,,,0.00,meteohub,2013-09-10 05:32:00,
2013-09-10 01:37:00,64.6,59.0,30.19,ESE,109,0.0,3.0,82,0.00,,,0.00,meteohub,2013-09-10 05:37:00,
2013-09-10 01:42:00,64.6,59.0,30.19,SSW,208,2.0,5.0,82,0.00,,,0.00,meteohub,2013-09-10 05:42:00,
2013-09-10 01:47:00,64.8,59.2,30.19,ENE,60,0.0,5.0,82,0.00,,,0.00,meteohub,2013-09-10 05:47:00,
2013-09-10 01:52:00,64.9,59.0,30.19,ESE,116,1.0,5.0,81,0.00,,,0.00,meteohub,2013-09-10 05:52:00,
2013-09-10 01:57:00,65.1,59.2,30.19,SE,125,0.0,4.0,81,0.00,,,0.00,meteohub,2013-09-10 05:57:00,
2013-09-10 02:02:00,65.3,59.0,30.19,SSW,199,0.0,4.0,80,0.00,,,0.00,meteohub,2013-09-10 06:02:00,
2013-09-10 02:07:00,65.7,59.4,30.19,SSE,166,0.0,4.0,80,0.00,,,0.00,meteohub,2013-09-10 06:07:00,
2013-09-10 02:12:00,65.8,59.5,30.18,SSE,168,2.0,5.0,80,0.00,,,0.00,meteohub,2013-09-10 06:12:00,
2013-09-10 02:17:00,65.8,59.5,30.18,SSE,166,2.0,5.0,80,0.00,,,0.00,meteohub,2013-09-10 06:17:00,
2013-09-10 02:22:00,66.0,59.7,30.18,ESE,116,1.0,4.0,80,0.00,,,0.00,meteohub,2013-09-10 06:22:00,
2013-09-10 02:27:00,66.0,59.7,30.19,SW,232,0.0,4.0,80,0.00,,,0.00,meteohub,2013-09-10 06:27:00,
2013-09-10 02:32:00,66.0,59.7,30.19,ESE,118,1.0,4.0,80,0.00,,,0.00,meteohub,2013-09-10 06:32:00,
2013-09-10 02:37:00,66.2,59.9,30.18,South,177,2.0,4.0,80,0.00,,,0.00,meteohub,2013-09-10 06:37:00,
2013-09-10 02:42:00,66.4,60.1,30.18,SE,139,0.0,3.0,80,0.00,,,0.00,meteohub,2013-09-10 06:42:00,
2013-09-10 02:47:00,66.4,59.7,30.18,SE,130,1.0,4.0,79,0.00,,,0.00,meteohub,2013-09-10 06:47:00,
2013-09-10 02:52:00,66.6,59.9,30.18,SE,130,1.0,4.0,79,0.00,,,0.00,meteohub,2013-09-10 06:52:00,
2013-09-10 02:57:00,66.7,59.7,30.18,ESE,116,3.0,4.0,78,0.00,,,0.00,meteohub,2013-09-10 06:57:00,
2013-09-10 03:02:00,66.7,60.1,30.18,SE,132,0.0,5.0,79,0.00,,,0.00,meteohub,2013-09-10 07:02:00,
2013-09-10 03:07:00,66.7,59.7,30.18,SE,142,0.0,5.0,78,0.00,,,0.00,meteohub,2013-09-10 07:07:00,
2013-09-10 03:12:00,66.9,59.9,30.18,South,172,0.0,5.0,78,0.00,,,0.00,meteohub,2013-09-10 07:12:00,
2013-09-10 03:17:00,66.9,59.9,30.18,East,87,2.0,5.0,78,0.00,,,0.00,meteohub,2013-09-10 07:17:00,
2013-09-10 03:22:00,66.9,59.9,30.18,SE,139,3.0,5.0,78,0.00,,,0.00,meteohub,2013-09-10 07:22:00,
2013-09-10 03:27:00,66.9,59.9,30.18,SSE,154,3.0,3.0,78,0.00,,,0.00,meteohub,2013-09-10 07:27:00,
2013-09-10 03:32:00,67.1,60.1,30.17,NW,323,1.0,3.0,78,0.00,,,0.00,meteohub,2013-09-10 07:32:00,
2013-09-10 03:37:00,67.1,60.4,30.18,SSE,153,1.0,4.0,79,0.00,,,0.00,meteohub,2013-09-10 07:37:00,
2013-09-10 03:42:00,67.1,60.4,30.18,SE,145,1.0,4.0,79,0.00,,,0.00,meteohub,2013-09-10 07:42:00,
2013-09-10 03:47:00,66.9,60.3,30.17,WSW,249,1.0,5.0,79,0.00,,,0.00,meteohub,2013-09-10 07:47:00,
2013-09-10 03:52:00,67.1,60.4,30.17,West,280,2.0,6.0,79,0.00,,,0.00,meteohub,2013-09-10 07:52:00,
2013-09-10 03:57:00,66.9,60.6,30.17,ESE,114,1.0,6.0,80,0.00,,,0.00,meteohub,2013-09-10 07:57:00,
2013-09-10 04:02:00,67.1,60.8,30.17,ESE,119,0.0,7.0,80,0.00,,,0.00,meteohub,2013-09-10 08:02:00,
2013-09-10 04:07:00,67.1,60.8,30.17,ESE,116,0.0,7.0,80,0.00,,,0.00,meteohub,2013-09-10 08:07:00,
2013-09-10 04:12:00,66.9,60.6,30.17,East,82,1.0,7.0,80,0.00,,,0.00,meteohub,2013-09-10 08:12:00,
2013-09-10 04:17:00,66.9,60.6,30.17,ESE,122,0.0,4.0,80,0.00,,,0.00,meteohub,2013-09-10 08:17:00,
2013-09-10 04:22:00,66.9,60.6,30.17,SE,134,2.0,4.0,80,0.00,,,0.00,meteohub,2013-09-10 08:22:00,
2013-09-10 04:27:00,66.9,60.6,30.17,NW,315,1.0,4.0,80,0.00,,,0.00,meteohub,2013-09-10 08:27:00,
2013-09-10 04:32:00,67.1,61.2,30.17,SE,126,1.0,5.0,81,0.00,,,0.00,meteohub,2013-09-10 08:32:00,
2013-09-10 04:37:00,67.1,60.8,30.17,ESE,114,1.0,5.0,80,0.00,,,0.00,meteohub,2013-09-10 08:37:00,
2013-09-10 04:42:00,67.1,61.2,30.17,SSE,158,2.0,3.0,81,0.00,,,0.00,meteohub,2013-09-10 08:42:00,
2013-09-10 04:47:00,67.1,61.2,30.17,SE,140,2.0,4.0,81,0.00,,,0.00,meteohub,2013-09-10 08:47:00,
2013-09-10 04:52:00,66.9,61.0,30.17,SW,219,1.0,4.0,81,0.00,,,0.00,meteohub,2013-09-10 08:52:00,
2013-09-10 04:57:00,66.9,61.0,30.17,SE,130,1.0,4.0,81,0.00,,,0.00,meteohub,2013-09-10 08:57:00,
2013-09-10 05:02:00,67.1,61.2,30.17,NNW,345,0.0,6.0,81,0.00,,,0.00,meteohub,2013-09-10 09:02:00,
2013-09-10 05:07:00,67.1,61.2,30.17,SE,125,1.0,6.0,81,0.00,,,0.00,meteohub,2013-09-10 09:07:00,
2013-09-10 05:12:00,67.3,61.2,30.17,SSE,165,0.0,5.0,81,0.00,,,0.00,meteohub,2013-09-10 09:12:00,
2013-09-10 05:17:00,67.3,61.2,30.17,SE,145,1.0,6.0,81,0.00,,,0.00,meteohub,2013-09-10 09:17:00,
2013-09-10 05:22:00,67.3,61.2,30.17,SE,130,0.0,6.0,81,0.00,,,0.00,meteohub,2013-09-10 09:22:00,
2013-09-10 05:27:00,67.3,61.5,30.17,SE,145,4.0,6.0,82,0.00,,,0.00,meteohub,2013-09-10 09:27:00,
2013-09-10 05:32:00,67.5,61.3,30.17,ESE,114,0.0,5.0,81,0.00,,,0.00,meteohub,2013-09-10 09:32:00,
2013-09-10 05:37:00,67.5,61.3,30.17,ENE,58,0.0,7.0,81,0.00,,,0.00,meteohub,2013-09-10 09:37:00,
2013-09-10 05:42:00,67.5,61.3,30.17,ESE,123,0.0,7.0,81,0.00,,,0.00,meteohub,2013-09-10 09:42:00,
2013-09-10 05:47:00,67.5,61.3,30.18,East,93,0.0,7.0,81,0.00,,,0.00,meteohub,2013-09-10 09:47:00,
2013-09-10 05:52:00,67.5,61.7,30.18,NE,52,1.0,3.0,82,0.00,,,0.00,meteohub,2013-09-10 09:52:00,
2013-09-10 05:57:00,67.5,61.7,30.18,NNE,30,1.0,3.0,82,0.00,,,0.00,meteohub,2013-09-10 09:57:00,
2013-09-10 06:02:00,67.5,61.3,30.18,East,95,0.0,3.0,81,0.00,,,0.00,meteohub,2013-09-10 10:02:00,
2013-09-10 06:07:00,67.5,61.7,30.18,South,183,0.0,6.0,82,0.00,,,0.00,meteohub,2013-09-10 10:07:00,
2013-09-10 06:12:00,67.5,61.7,30.18,NNE,33,1.0,6.0,82,0.00,,,0.00,meteohub,2013-09-10 10:12:00,
2013-09-10 06:17:00,67.5,61.7,30.18,SSW,204,1.0,3.0,82,0.00,,,0.00,meteohub,2013-09-10 10:17:00,
2013-09-10 06:22:00,67.5,62.1,30.18,SSE,162,0.0,3.0,83,0.00,,,0.00,meteohub,2013-09-10 10:22:00,
2013-09-10 06:27:00,67.5,62.1,30.18,East,79,0.0,3.0,83,0.00,,,0.00,meteohub,2013-09-10 10:27:00,
2013-09-10 06:32:00,67.5,62.1,30.18,SSE,152,2.0,3.0,83,0.00,,,0.00,meteohub,2013-09-10 10:32:00,
2013-09-10 06:37:00,67.5,62.1,30.19,East,100,5.0,5.0,83,0.00,,,0.00,meteohub,2013-09-10 10:37:00,
2013-09-10 06:42:00,67.6,62.2,30.19,NW,322,0.0,5.0,83,0.00,,,0.00,meteohub,2013-09-10 10:42:00,
2013-09-10 06:47:00,67.6,62.6,30.19,South,183,0.0,5.0,84,0.00,,,0.00,meteohub,2013-09-10 10:47:00,
2013-09-10 06:52:00,67.6,62.6,30.19,ESE,102,0.0,5.0,84,0.00,,,0.00,meteohub,2013-09-10 10:52:00,
2013-09-10 06:57:00,67.5,62.8,30.19,WNW,283,0.0,5.0,85,0.00,,,0.00,meteohub,2013-09-10 10:57:00,
2013-09-10 07:02:00,67.1,63.1,30.19,North,354,0.0,5.0,87,0.02,,,0.02,meteohub,2013-09-10 11:02:00,
2013-09-10 07:07:00,66.7,63.1,30.19,SSW,204,1.0,5.0,88,0.02,,,0.02,meteohub,2013-09-10 11:07:00,
2013-09-10 07:12:00,66.6,63.1,30.19,NNW,331,0.0,4.0,89,0.03,,,0.03,meteohub,2013-09-10 11:12:00,
2013-09-10 07:17:00,66.4,63.0,30.19,SSE,162,0.0,4.0,89,0.03,,,0.03,meteohub,2013-09-10 11:17:00,
2013-09-10 07:22:00,66.2,63.1,30.19,South,180,0.0,5.0,90,0.05,,,0.05,meteohub,2013-09-10 11:22:00,
2013-09-10 07:27:00,66.0,63.3,30.19,ESE,119,1.0,5.0,91,0.08,,,0.08,meteohub,2013-09-10 11:27:00,
2013-09-10 07:32:00,65.8,63.1,30.19,South,169,2.0,5.0,91,0.09,,,0.09,meteohub,2013-09-10 11:32:00,
2013-09-10 07:37:00,65.8,63.5,30.19,SSE,158,1.0,5.0,92,0.11,,,0.11,meteohub,2013-09-10 11:37:00,
2013-09-10 07:42:00,65.8,63.5,30.19,SE,128,1.0,3.0,92,0.11,,,0.11,meteohub,2013-09-10 11:42:00,
2013-09-10 07:47:00,65.8,63.5,30.19,NNE,33,0.0,3.0,92,0.11,,,0.11,meteohub,2013-09-10 11:47:00,
2013-09-10 07:52:00,65.8,63.5,30.18,SE,139,3.0,3.0,92,0.11,,,0.11,meteohub,2013-09-10 11:52:00,
2013-09-10 07:57:00,65.8,63.5,30.18,ESE,113,1.0,5.0,92,0.11,,,0.11,meteohub,2013-09-10 11:57:00,
2013-09-10 08:02:00,66.0,63.7,30.18,ENE,60,0.0,5.0,92,0.09,,,0.11,meteohub,2013-09-10 12:02:00,
2013-09-10 08:07:00,66.0,63.7,30.18,SE,128,0.0,5.0,92,0.08,,,0.11,meteohub,2013-09-10 12:07:00,
2013-09-10 08:12:00,66.0,63.7,30.18,South,183,0.0,4.0,92,0.08,,,0.11,meteohub,2013-09-10 12:12:00,
2013-09-10 08:17:00,66.4,64.2,30.18,SSE,147,1.0,3.0,93,0.08,,,0.11,meteohub,2013-09-10 12:17:00,
2013-09-10 08:22:00,66.4,64.2,30.18,SSE,147,1.0,4.0,93,0.06,,,0.11,meteohub,2013-09-10 12:22:00,
2013-09-10 08:27:00,66.6,64.4,30.18,SSE,154,1.0,4.0,93,0.02,,,0.11,meteohub,2013-09-10 12:27:00,
2013-09-10 08:32:00,66.7,64.6,30.18,West,263,1.0,4.0,93,0.00,,,0.11,meteohub,2013-09-10 12:32:00,
2013-09-10 08:37:00,66.7,64.6,30.18,ENE,76,1.0,4.0,93,0.00,,,0.11,meteohub,2013-09-10 12:37:00,
2013-09-10 08:42:00,66.9,64.8,30.18,ESE,106,0.0,3.0,93,0.00,,,0.11,meteohub,2013-09-10 12:42:00,
2013-09-10 08:47:00,66.9,64.6,30.18,SSE,166,0.0,3.0,92,0.00,,,0.11,meteohub,2013-09-10 12:47:00,
2013-09-10 08:52:00,66.9,64.6,30.18,West,279,0.0,3.0,92,0.00,,,0.11,meteohub,2013-09-10 12:52:00,
2013-09-10 08:57:00,67.1,64.8,30.18,ESE,116,2.0,3.0,92,0.00,,,0.11,meteohub,2013-09-10 12:57:00,
2013-09-10 09:02:00,67.3,65.1,30.19,East,90,0.0,3.0,93,0.00,,,0.11,meteohub,2013-09-10 13:02:00,
2013-09-10 09:07:00,67.3,65.1,30.19,ENE,70,0.0,3.0,93,0.00,,,0.11,meteohub,2013-09-10 13:07:00,
2013-09-10 09:12:00,67.5,65.3,30.19,East,99,0.0,2.0,93,0.00,,,0.11,meteohub,2013-09-10 13:12:00,
2013-09-10 09:17:00,67.5,65.3,30.19,WSW,245,1.0,4.0,93,0.00,,,0.11,meteohub,2013-09-10 13:17:00,
2013-09-10 09:22:00,67.6,65.3,30.19,WSW,255,0.0,4.0,92,0.00,,,0.11,meteohub,2013-09-10 13:22:00,
2013-09-10 09:27:00,67.6,65.3,30.20,South,190,0.0,5.0,92,0.00,,,0.11,meteohub,2013-09-10 13:27:00,
2013-09-10 09:32:00,67.6,65.3,30.20,South,178,0.0,5.0,92,0.00,,,0.11,meteohub,2013-09-10 13:32:00,
2013-09-10 09:37:00,67.6,65.3,30.20,WNW,297,2.0,5.0,92,0.00,,,0.11,meteohub,2013-09-10 13:37:00,
2013-09-10 09:42:00,67.6,65.3,30.20,WSW,245,0.0,3.0,92,0.00,,,0.11,meteohub,2013-09-10 13:42:00,
2013-09-10 09:47:00,67.8,65.5,30.20,SW,224,0.0,5.0,92,0.00,,,0.11,meteohub,2013-09-10 13:47:00,
2013-09-10 09:52:00,67.8,65.5,30.20,SSW,213,1.0,5.0,92,0.00,,,0.11,meteohub,2013-09-10 13:52:00,
2013-09-10 09:57:00,68.0,65.7,30.20,NW,315,1.0,5.0,92,0.00,,,0.11,meteohub,2013-09-10 13:57:00,
2013-09-10 10:02:00,68.2,65.8,30.20,NNW,329,1.0,5.0,92,0.00,,,0.11,meteohub,2013-09-10 14:02:00,
2013-09-10 10:07:00,68.4,66.0,30.20,NW,308,2.0,5.0,92,0.00,,,0.11,meteohub,2013-09-10 14:07:00,
2013-09-10 10:12:00,68.5,66.2,30.21,South,177,2.0,5.0,92,0.00,,,0.11,meteohub,2013-09-10 14:12:00,
2013-09-10 10:17:00,68.5,65.8,30.21,WSW,247,3.0,5.0,91,0.00,,,0.11,meteohub,2013-09-10 14:17:00,
2013-09-10 10:22:00,68.7,66.0,30.21,North,4,2.0,7.0,91,0.00,,,0.11,meteohub,2013-09-10 14:22:00,
2013-09-10 10:27:00,68.9,65.8,30.20,NW,305,1.0,7.0,90,0.00,,,0.11,meteohub,2013-09-10 14:27:00,
2013-09-10 10:33:00,69.1,66.0,30.20,East,85,2.0,7.0,90,0.00,,,0.11,meteohub,2013-09-10 14:33:00,
2013-09-10 10:38:00,69.3,66.2,30.19,ENE,77,2.0,6.0,90,0.00,,,0.11,meteohub,2013-09-10 14:38:00,
2013-09-10 10:43:00,69.3,66.2,30.19,SW,226,0.0,6.0,90,0.00,,,0.11,meteohub,2013-09-10 14:43:00,
2013-09-10 10:48:00,69.4,66.4,30.19,SSW,193,0.0,6.0,90,0.00,,,0.11,meteohub,2013-09-10 14:48:00,
2013-09-10 10:53:00,69.4,66.4,30.19,WSW,244,1.0,6.0,90,0.00,,,0.11,meteohub,2013-09-10 14:53:00,
2013-09-10 10:58:00,69.6,66.6,30.19,SE,143,1.0,9.0,90,0.00,,,0.11,meteohub,2013-09-10 14:58:00,
2013-09-10 11:03:00,69.8,66.4,30.19,South,179,0.0,9.0,89,0.00,,,0.11,meteohub,2013-09-10 15:03:00,
2013-09-10 11:08:00,69.8,66.4,30.19,NE,41,1.0,7.0,89,0.00,,,0.11,meteohub,2013-09-10 15:08:00,
2013-09-10 11:13:00,70.0,66.6,30.19,NNW,345,1.0,5.0,89,0.00,,,0.11,meteohub,2013-09-10 15:13:00,
2013-09-10 11:18:00,70.3,67.3,30.19,NNW,335,0.0,5.0,90,0.00,,,0.11,meteohub,2013-09-10 15:18:00,
2013-09-10 11:23:00,70.9,67.5,30.19,North,8,2.0,5.0,89,0.00,,,0.11,meteohub,2013-09-10 15:23:00,
2013-09-10 11:28:00,71.1,67.3,30.19,WNW,300,3.0,10.0,88,0.00,,,0.11,meteohub,2013-09-10 15:28:00,
2013-09-10 11:33:00,71.1,67.3,30.19,NE,56,2.0,10.0,88,0.00,,,0.11,meteohub,2013-09-10 15:33:00,
2013-09-10 11:37:00,70.9,67.1,30.19,WSW,254,1.0,10.0,88,0.00,,,0.11,meteohub,2013-09-10 15:37:00,
2013-09-10 11:42:00,71.1,67.3,30.19,NW,308,2.0,8.0,88,0.00,,,0.11,meteohub,2013-09-10 15:42:00,
2013-09-10 11:47:00,71.2,67.5,30.19,NNW,330,3.0,11.0,88,0.00,,,0.11,meteohub,2013-09-10 15:47:00,
2013-09-10 11:52:00,71.4,67.6,30.19,SW,231,0.0,11.0,88,0.00,,,0.11,meteohub,2013-09-10 15:52:00,
2013-09-10 11:57:00,71.8,68.0,30.19,SE,140,1.0,11.0,88,0.00,,,0.11,meteohub,2013-09-10 15:57:00,
2013-09-10 12:02:00,72.1,68.4,30.19,WNW,298,2.0,9.0,88,0.00,,,0.11,meteohub,2013-09-10 16:02:00,
2013-09-10 12:07:00,72.1,68.0,30.19,South,191,7.0,9.0,87,0.00,,,0.11,meteohub,2013-09-10 16:07:00,
2013-09-10 12:13:00,72.1,68.0,30.18,ENE,64,3.0,9.0,87,0.00,,,0.11,meteohub,2013-09-10 16:13:00,
2013-09-10 12:18:00,72.1,68.0,30.18,West,262,6.0,9.0,87,0.00,,,0.11,meteohub,2013-09-10 16:18:00,
2013-09-10 12:23:00,72.0,67.8,30.18,ENE,73,0.0,9.0,87,0.00,,,0.11,meteohub,2013-09-10 16:23:00,
2013-09-10 12:28:00,71.8,68.0,30.19,NW,316,3.0,9.0,88,0.00,,,0.11,meteohub,2013-09-10 16:28:00,
2013-09-10 12:33:00,72.0,68.2,30.18,NW,318,0.0,9.0,88,0.00,,,0.11,meteohub,2013-09-10 16:33:00,
2013-09-10 12:38:00,72.1,68.4,30.18,WSW,244,2.0,7.0,88,0.00,,,0.11,meteohub,2013-09-10 16:38:00,
2013-09-10 12:43:00,72.1,68.4,30.19,WNW,293,3.0,9.0,88,0.00,,,0.11,meteohub,2013-09-10 16:43:00,
2013-09-10 12:48:00,72.0,68.2,30.19,NW,325,0.0,9.0,88,0.00,,,0.11,meteohub,2013-09-10 16:48:00,
2013-09-10 12:53:00,72.0,68.5,30.17,NE,38,1.0,9.0,89,0.00,,,0.11,meteohub,2013-09-10 16:53:00,
2013-09-10 12:58:00,72.1,68.4,30.16,ESE,112,1.0,7.0,88,0.00,,,0.11,meteohub,2013-09-10 16:58:00,
2013-09-10 13:03:00,72.5,68.7,30.15,East,95,2.0,6.0,88,0.00,,,0.11,meteohub,2013-09-10 17:03:00,
2013-09-10 13:08:00,72.5,68.4,30.14,ESE,122,3.0,8.0,87,0.00,,,0.11,meteohub,2013-09-10 17:08:00,
2013-09-10 13:13:00,72.1,68.0,30.13,ESE,118,2.0,9.0,87,0.00,,,0.11,meteohub,2013-09-10 17:13:00,
2013-09-10 13:18:00,72.1,68.4,30.13,East,101,4.0,9.0,88,0.00,,,0.11,meteohub,2013-09-10 17:18:00,
2013-09-10 13:23:00,72.5,68.7,30.12,NNW,327,2.0,11.0,88,0.00,,,0.11,meteohub,2013-09-10 17:23:00,
2013-09-10 13:28:00,72.7,68.5,30.12,East,101,1.0,11.0,87,0.00,,,0.11,meteohub,2013-09-10 17:28:00,
2013-09-10 13:33:00,73.0,68.9,30.12,ENE,58,3.0,10.0,87,0.00,,,0.11,meteohub,2013-09-10 17:33:00,
2013-09-10 13:38:00,73.0,68.5,30.11,NNE,15,4.0,10.0,86,0.00,,,0.11,meteohub,2013-09-10 17:38:00,
2013-09-10 13:42:00,73.0,68.5,30.11,South,182,6.0,10.0,86,0.00,,,0.11,meteohub,2013-09-10 17:42:00,
2013-09-10 13:47:00,73.0,68.5,30.11,WSW,238,5.0,10.0,86,0.00,,,0.11,meteohub,2013-09-10 17:47:00,
2013-09-10 13:52:00,73.0,68.5,30.11,SE,141,5.0,10.0,86,0.00,,,0.11,meteohub,2013-09-10 17:52:00,
2013-09-10 13:57:00,73.2,68.7,30.10,ENE,67,3.0,11.0,86,0.00,,,0.11,meteohub,2013-09-10 17:57:00,
2013-09-10 14:02:00,73.6,69.1,30.10,WSW,237,3.0,13.0,86,0.01,,,0.12,meteohub,2013-09-10 18:02:00,
2013-09-10 14:07:00,73.2,68.7,30.09,SSE,153,4.0,13.0,86,0.01,,,0.12,meteohub,2013-09-10 18:07:00,
2013-09-10 14:12:00,73.2,68.7,30.08,ENE,62,2.0,13.0,86,0.01,,,0.12,meteohub,2013-09-10 18:12:00,
2013-09-10 14:17:00,73.2,68.7,30.09,East,89,8.0,11.0,86,0.01,,,0.12,meteohub,2013-09-10 18:17:00,
2013-09-10 14:22:00,73.0,68.5,30.08,SSW,192,3.0,14.0,86,0.01,,,0.12,meteohub,2013-09-10 18:22:00,
2013-09-10 14:27:00,72.9,68.4,30.09,SSE,165,3.0,14.0,86,0.01,,,0.12,meteohub,2013-09-10 18:27:00,
2013-09-10 14:33:00,72.7,68.5,30.10,East,99,2.0,14.0,87,0.01,,,0.12,meteohub,2013-09-10 18:33:00,
2013-09-10 14:37:00,72.7,68.5,30.10,WNW,303,3.0,13.0,87,0.01,,,0.12,meteohub,2013-09-10 18:37:00,
2013-09-10 14:42:00,72.7,68.5,30.10,WNW,301,4.0,13.0,87,0.01,,,0.12,meteohub,2013-09-10 18:42:00,
2013-09-10 14:47:00,72.9,68.7,30.10,NNE,27,5.0,13.0,87,0.01,,,0.12,meteohub,2013-09-10 18:47:00,
2013-09-10 14:52:00,73.0,68.9,30.11,North,359,1.0,10.0,87,0.01,,,0.12,meteohub,2013-09-10 18:52:00,
2013-09-10 14:57:00,73.4,68.9,30.12,NW,312,5.0,10.0,86,0.00,,,0.12,meteohub,2013-09-10 18:57:00,
2013-09-10 15:02:00,73.2,68.7,30.12,WNW,293,3.0,11.0,86,0.00,,,0.12,meteohub,2013-09-10 19:02:00,
2013-09-10 15:07:00,73.2,69.1,30.12,NNE,18,2.0,11.0,87,0.00,,,0.12,meteohub,2013-09-10 19:07:00,
2013-09-10 15:12:00,73.0,68.5,30.12,NNW,341,1.0,11.0,86,0.00,,,0.12,meteohub,2013-09-10 19:12:00,
2013-09-10 15:17:00,72.9,68.7,30.12,North,354,0.0,9.0,87,0.00,,,0.12,meteohub,2013-09-10 19:17:00,
2013-09-10 15:23:00,73.0,68.9,30.12,WNW,295,6.0,10.0,87,0.00,,,0.12,meteohub,2013-09-10 19:23:00,
2013-09-10 15:28:00,73.4,69.3,30.12,NNE,18,1.0,10.0,87,0.00,,,0.12,meteohub,2013-09-10 19:28:00,
2013-09-10 15:33:00,73.8,69.3,30.12,ESE,104,3.0,10.0,86,0.00,,,0.12,meteohub,2013-09-10 19:33:00,
2013-09-10 15:38:00,73.6,69.4,30.11,NE,43,2.0,8.0,87,0.00,,,0.12,meteohub,2013-09-10 19:38:00,
2013-09-10 15:43:00,73.6,69.1,30.11,SSW,197,2.0,8.0,86,0.00,,,0.12,meteohub,2013-09-10 19:43:00,
2013-09-10 15:48:00,73.6,69.1,30.11,SSW,200,3.0,11.0,86,0.00,,,0.12,meteohub,2013-09-10 19:48:00,
2013-09-10 15:53:00,73.2,69.1,30.11,North,8,2.0,15.0,87,0.00,,,0.12,meteohub,2013-09-10 19:53:00,
2013-09-10 15:58:00,73.0,68.9,30.11,North,4,2.0,15.0,87,0.00,,,0.12,meteohub,2013-09-10 19:58:00,
2013-09-10 16:03:00,73.0,68.9,30.11,West,276,7.0,10.0,87,0.00,,,0.12,meteohub,2013-09-10 20:03:00,
2013-09-10 16:08:00,73.0,69.3,30.11,North,354,3.0,10.0,88,0.00,,,0.12,meteohub,2013-09-10 20:08:00,
2013-09-10 16:13:00,73.2,69.1,30.11,NE,50,3.0,10.0,87,0.00,,,0.12,meteohub,2013-09-10 20:13:00,
2013-09-10 16:18:00,73.2,69.1,30.11,West,276,1.0,9.0,87,0.00,,,0.12,meteohub,2013-09-10 20:18:00,
2013-09-10 16:23:00,73.4,69.3,30.11,ENE,73,3.0,9.0,87,0.00,,,0.12,meteohub,2013-09-10 20:23:00,
2013-09-10 16:28:00,73.4,69.3,30.11,South,183,2.0,9.0,87,0.00,,,0.12,meteohub,2013-09-10 20:28:00,
2013-09-10 16:33:00,73.2,69.1,30.11,SW,220,3.0,7.0,87,0.00,,,0.12,meteohub,2013-09-10 20:33:00,
2013-09-10 16:38:00,73.0,68.9,30.11,WNW,299,2.0,9.0,87,0.00,,,0.12,meteohub,2013-09-10 20:38:00,
2013-09-10 16:43:00,73.0,68.9,30.11,WSW,241,3.0,9.0,87,0.00,,,0.12,meteohub,2013-09-10 20:43:00,
2013-09-10 16:48:00,72.9,68.7,30.11,ESE,105,1.0,9.0,87,0.00,,,0.12,meteohub,2013-09-10 20:48:00,
2013-09-10 16:53:00,72.9,68.7,30.11,NW,316,3.0,9.0,87,0.00,,,0.12,meteohub,2013-09-10 20:53:00,
2013-09-10 16:58:00,72.9,69.1,30.11,East,81,0.0,12.0,88,0.00,,,0.12,meteohub,2013-09-10 20:58:00,
2013-09-10 17:03:00,72.7,68.9,30.11,NNW,345,4.0,12.0,88,0.00,,,0.12,meteohub,2013-09-10 21:03:00,
2013-09-10 17:08:00,72.5,68.7,30.11,ESE,108,3.0,12.0,88,0.00,,,0.12,meteohub,2013-09-10 21:08:00,
2013-09-10 17:13:00,72.5,68.7,30.11,NE,41,3.0,7.0,88,0.00,,,0.12,meteohub,2013-09-10 21:13:00,
2013-09-10 17:18:00,72.7,68.9,30.11,NNW,341,6.0,11.0,88,0.00,,,0.12,meteohub,2013-09-10 21:18:00,
2013-09-10 17:23:00,72.9,69.1,30.11,SSE,150,5.0,11.0,88,0.00,,,0.12,meteohub,2013-09-10 21:23:00,
2013-09-10 17:29:00,73.0,69.3,30.11,NNE,23,4.0,8.0,88,0.00,,,0.12,meteohub,2013-09-10 21:29:00,
2013-09-10 17:34:00,73.0,68.9,30.11,East,97,2.0,8.0,87,0.00,,,0.12,meteohub,2013-09-10 21:34:00,
2013-09-10 17:39:00,72.9,69.1,30.11,NNE,18,1.0,6.0,88,0.00,,,0.12,meteohub,2013-09-10 21:39:00,
2013-09-10 17:44:00,72.9,69.1,30.11,ENE,77,2.0,6.0,88,0.00,,,0.12,meteohub,2013-09-10 21:44:00,
2013-09-10 17:49:00,72.7,68.9,30.11,ENE,75,2.0,6.0,88,0.00,,,0.12,meteohub,2013-09-10 21:49:00,
2013-09-10 17:54:00,72.7,68.9,30.11,ENE,68,0.0,6.0,88,0.00,,,0.12,meteohub,2013-09-10 21:54:00,
2013-09-10 17:59:00,72.5,69.1,30.11,WNW,289,2.0,5.0,89,0.00,,,0.12,meteohub,2013-09-10 21:59:00,
2013-09-10 18:04:00,72.3,68.9,30.11,NE,52,3.0,5.0,89,0.00,,,0.12,meteohub,2013-09-10 22:04:00,
2013-09-10 18:09:00,72.3,68.9,30.11,West,277,2.0,4.0,89,0.00,,,0.12,meteohub,2013-09-10 22:09:00,
2013-09-10 18:14:00,72.1,68.7,30.11,North,350,0.0,11.0,89,0.00,,,0.12,meteohub,2013-09-10 22:14:00,
2013-09-10 18:19:00,72.1,68.7,30.11,NW,319,0.0,11.0,89,0.00,,,0.12,meteohub,2013-09-10 22:19:00,
2013-09-10 18:24:00,72.0,68.5,30.11,South,191,2.0,6.0,89,0.00,,,0.12,meteohub,2013-09-10 22:24:00,
2013-09-10 18:29:00,72.0,68.9,30.11,North,354,0.0,5.0,90,0.00,,,0.12,meteohub,2013-09-10 22:29:00,
2013-09-10 18:34:00,71.8,68.7,30.11,South,188,3.0,5.0,90,0.00,,,0.12,meteohub,2013-09-10 22:34:00,
2013-09-10 18:39:00,71.6,68.5,30.11,North,8,2.0,5.0,90,0.00,,,0.12,meteohub,2013-09-10 22:39:00,
2013-09-10 18:44:00,71.4,68.4,30.11,North,359,3.0,6.0,90,0.00,,,0.12,meteohub,2013-09-10 22:44:00,
2013-09-10 18:49:00,71.2,68.5,30.11,NW,318,4.0,6.0,91,0.00,,,0.12,meteohub,2013-09-10 22:49:00,
2013-09-10 18:54:00,71.2,68.5,30.12,WSW,256,0.0,5.0,91,0.00,,,0.12,meteohub,2013-09-10 22:54:00,
2013-09-10 18:59:00,71.1,68.4,30.11,NNE,19,1.0,5.0,91,0.00,,,0.12,meteohub,2013-09-10 22:59:00,
2013-09-10 19:04:00,70.9,68.2,30.12,West,259,3.0,5.0,91,0.00,,,0.12,meteohub,2013-09-10 23:04:00,
2013-09-10 19:09:00,70.9,68.4,30.12,NW,317,3.0,5.0,92,0.00,,,0.12,meteohub,2013-09-10 23:09:00,
2013-09-10 19:14:00,70.5,68.0,30.12,North,4,0.0,5.0,92,0.00,,,0.12,meteohub,2013-09-10 23:14:00,
2013-09-10 19:19:00,70.5,68.0,30.12,NNE,29,1.0,8.0,92,0.00,,,0.12,meteohub,2013-09-10 23:19:00,
2013-09-10 19:24:00,70.5,68.0,30.12,NW,326,2.0,8.0,92,0.00,,,0.12,meteohub,2013-09-10 23:24:00,
2013-09-10 19:29:00,70.5,68.0,30.12,SW,225,1.0,7.0,92,0.00,,,0.12,meteohub,2013-09-10 23:29:00,
2013-09-10 19:34:00,70.5,68.0,30.12,NNW,339,0.0,7.0,92,0.00,,,0.12,meteohub,2013-09-10 23:34:00,
2013-09-10 19:39:00,70.3,68.2,30.12,North,359,2.0,7.0,93,0.00,,,0.12,meteohub,2013-09-10 23:39:00,
2013-09-10 19:44:00,70.3,68.2,30.12,SW,234,2.0,4.0,93,0.00,,,0.12,meteohub,2013-09-10 23:44:00,
2013-09-10 19:49:00,70.3,68.2,30.12,WNW,296,4.0,4.0,93,0.00,,,0.12,meteohub,2013-09-10 23:49:00,
2013-09-10 19:54:00,70.3,68.2,30.12,NE,49,2.0,4.0,93,0.00,,,0.12,meteohub,2013-09-10 23:54:00,
2013-09-10 19:59:00,70.3,68.2,30.12,NNW,341,2.0,5.0,93,0.00,,,0.12,meteohub,2013-09-10 23:59:00,
2013-09-10 20:04:00,70.3,68.2,30.12,NE,54,0.0,5.0,93,0.00,,,0.12,meteohub,2013-09-11 00:04:00,
2013-09-10 20:09:00,70.3,68.2,30.12,West,259,1.0,4.0,93,0.00,,,0.12,meteohub,2013-09-11 00:09:00,
2013-09-10 20:14:00,70.3,68.2,30.12,West,271,0.0,5.0,93,0.00,,,0.12,meteohub,2013-09-11 00:14:00,
2013-09-10 20:19:00,70.3,68.5,30.12,East,86,1.0,6.0,94,0.00,,,0.12,meteohub,2013-09-11 00:19:00,
2013-09-10 20:24:00,70.3,68.5,30.12,SSW,211,2.0,6.0,94,0.00,,,0.12,meteohub,2013-09-11 00:24:00,
2013-09-10 20:29:00,70.3,68.5,30.12,NE,53,1.0,5.0,94,0.00,,,0.12,meteohub,2013-09-11 00:29:00,
2013-09-10 20:34:00,70.3,68.5,30.12,NNE,25,4.0,5.0,94,0.00,,,0.12,meteohub,2013-09-11 00:34:00,
2013-09-10 20:39:00,70.3,68.5,30.13,NE,41,1.0,5.0,94,0.00,,,0.12,meteohub,2013-09-11 00:39:00,
2013-09-10 20:44:00,70.3,68.5,30.13,NW,309,3.0,5.0,94,0.00,,,0.12,meteohub,2013-09-11 00:44:00,
2013-09-10 20:49:00,70.3,68.5,30.13,North,354,2.0,6.0,94,0.00,,,0.12,meteohub,2013-09-11 00:49:00,
2013-09-10 20:54:00,70.3,68.5,30.13,SSW,199,2.0,6.0,94,0.00,,,0.12,meteohub,2013-09-11 00:54:00,
2013-09-10 20:59:00,70.3,68.5,30.12,NW,309,2.0,6.0,94,0.00,,,0.12,meteohub,2013-09-11 00:59:00,
2013-09-10 21:04:00,70.3,68.5,30.12,North,8,3.0,6.0,94,0.00,,,0.12,meteohub,2013-09-11 01:04:00,
2013-09-10 21:09:00,70.3,68.5,30.13,West,278,3.0,6.0,94,0.00,,,0.12,meteohub,2013-09-11 01:09:00,
2013-09-10 21:14:00,70.5,68.7,30.13,NNE,29,2.0,6.0,94,0.00,,,0.12,meteohub,2013-09-11 01:14:00,
2013-09-10 21:19:00,70.5,68.7,30.13,West,276,1.0,6.0,94,0.00,,,0.12,meteohub,2013-09-11 01:19:00,
2013-09-10 21:24:00,70.5,68.7,30.12,WNW,301,2.0,6.0,94,0.00,,,0.12,meteohub,2013-09-11 01:24:00,
2013-09-10 21:29:00,70.5,68.7,30.12,NNW,348,3.0,5.0,94,0.00,,,0.12,meteohub,2013-09-11 01:29:00,
2013-09-10 21:34:00,70.5,68.7,30.12,NNW,332,2.0,6.0,94,0.00,,,0.12,meteohub,2013-09-11 01:34:00,
2013-09-10 21:39:00,70.5,68.7,30.12,SW,219,0.0,6.0,94,0.00,,,0.12,meteohub,2013-09-11 01:39:00,
2013-09-10 21:44:00,70.3,68.5,30.13,SW,228,4.0,6.0,94,0.00,,,0.12,meteohub,2013-09-11 01:44:00,
2013-09-10 21:49:00,70.3,68.5,30.13,West,274,4.0,6.0,94,0.00,,,0.12,meteohub,2013-09-11 01:49:00,
2013-09-10 21:54:00,70.3,68.5,30.13,NE,37,2.0,6.0,94,0.00,,,0.12,meteohub,2013-09-11 01:54:00,
2013-09-10 21:59:00,70.3,68.5,30.13,WNW,293,2.0,6.0,94,0.00,,,0.12,meteohub,2013-09-11 01:59:00,
2013-09-10 22:04:00,70.3,68.5,30.13,NNE,18,1.0,6.0,94,0.00,,,0.12,meteohub,2013-09-11 02:04:00,
2013-09-10 22:09:00,70.3,68.5,30.13,North,8,3.0,6.0,94,0.00,,,0.12,meteohub,2013-09-11 02:09:00,
2013-09-10 22:14:00,70.3,68.5,30.13,West,281,3.0,5.0,94,0.00,,,0.12,meteohub,2013-09-11 02:14:00,
2013-09-10 22:19:00,70.3,68.5,30.13,NE,37,3.0,6.0,94,0.00,,,0.12,meteohub,2013-09-11 02:19:00,
2013-09-10 22:24:00,70.3,68.5,30.13,WNW,296,2.0,6.0,94,0.00,,,0.12,meteohub,2013-09-11 02:24:00,
2013-09-10 22:29:00,70.3,68.5,30.13,NW,308,0.0,6.0,94,0.00,,,0.12,meteohub,2013-09-11 02:29:00,
2013-09-10 22:34:00,70.3,68.5,30.13,NE,37,2.0,6.0,94,0.00,,,0.12,meteohub,2013-09-11 02:34:00,
2013-09-10 22:39:00,70.3,68.5,30.13,West,267,2.0,6.0,94,0.00,,,0.12,meteohub,2013-09-11 02:39:00,
2013-09-10 22:44:00,70.3,68.9,30.13,NNE,14,0.0,7.0,95,0.00,,,0.12,meteohub,2013-09-11 02:44:00,
2013-09-10 22:49:00,70.3,68.9,30.13,NW,320,4.0,7.0,95,0.00,,,0.12,meteohub,2013-09-11 02:49:00,
2013-09-10 22:54:00,70.3,68.9,30.13,North,359,2.0,7.0,95,0.00,,,0.12,meteohub,2013-09-11 02:54:00,
2013-09-10 22:59:00,70.3,68.9,30.13,NNW,341,2.0,6.0,95,0.00,,,0.12,meteohub,2013-09-11 02:59:00,
2013-09-10 23:04:00,70.3,68.9,30.13,NW,322,5.0,6.0,95,0.00,,,0.12,meteohub,2013-09-11 03:04:00,
2013-09-10 23:09:00,70.5,68.7,30.13,NNW,331,1.0,6.0,94,0.00,,,0.12,meteohub,2013-09-11 03:09:00,
2013-09-10 23:14:00,70.5,68.7,30.13,WSW,250,1.0,7.0,94,0.00,,,0.12,meteohub,2013-09-11 03:14:00,
2013-09-10 23:19:00,70.5,68.7,30.13,NNE,28,2.0,7.0,94,0.00,,,0.12,meteohub,2013-09-11 03:19:00,
2013-09-10 23:24:00,70.5,68.7,30.13,North,354,2.0,7.0,94,0.00,,,0.12,meteohub,2013-09-11 03:24:00,
2013-09-10 23:29:00,70.5,68.7,30.13,West,267,2.0,7.0,94,0.00,,,0.12,meteohub,2013-09-11 03:29:00,
2013-09-10 23:34:00,70.5,68.7,30.13,NW,307,4.0,7.0,94,0.00,,,0.12,meteohub,2013-09-11 03:34:00,
2013-09-10 23:39:00,70.5,68.7,30.13,NNW,340,1.0,7.0,94,0.00,,,0.12,meteohub,2013-09-11 03:39:00,
2013-09-10 23:44:00,70.5,68.7,30.13,NNE,27,1.0,8.0,94,0.00,,,0.12,meteohub,2013-09-11 03:44:00,
2013-09-10 23:49:00,70.5,68.7,30.13,North,354,3.0,8.0,94,0.00,,,0.12,meteohub,2013-09-11 03:49:00,
2013-09-10 23:54:00,70.5,68.7,30.13,NW,321,4.0,8.0,94,0.00,,,0.12,meteohub,2013-09-11 03:54:00,
2013-09-10 23:59:00,70.5,68.7,30.13,SSW,210,1.0,8.0,94,0.00,,,0.12,meteohub,2013-09-11 03:59:00,